SCP
0 0 0 0 0 0 0 0 0 0 0 0 0 0 0 0 0 0 0 -0 0 0 0 0 0 0 0 0 0 0 0 0 0 0 0 0 0 0 0 0 0 0 0 0
0 0 0 0 0 0 0 0 0 0 0 0 0 0 0 0 0 0 0 0 0 0 0 0 0 0 0 0 0 0 0 0 0 0 0 0 0 0 0 0 0 0 0 0
0 0 0 0 0 0 0 0 0 0 0 0 0 0 0 0 0 0 0 0 0 0 0 0 0 0 0 0 0 0 0 0 0 0 0 0 0 0 0 0 0 0 -0 -0
0 0 0 0 0 0 0 0 0 0 0 0 0 0 0 0 0 0 0 0 0 0 0 0 0 0 0 0 0 0 0 0 0 0 0 0 0 0 0 -0 -0 -0 -0 -0
0 0 0 0 0 0 0 0 0 0 0 0 0 0 0 0 0 0 0 0 0 0 0 0 0 0 -0 0 0 0 0 0 0 0 0 0 0 0 0 0 0 0 0 0
0 0 0 0 0 0 0 0 0 0 0 0 0 0 0 0 0 0 0 0 0 0 0 0 -0 -0 0 0 0 0 0 0 0 0 0 0 0 0 0 0 0 0 0 0
0 0 0 0 0 0 0 0 0 0 0 0 0 0 0 0 0 0 0 0 -0 -0 -0 -0 0 0 0 0 0 0 0 0 0 0 0 0 0 0 0 0 0 0 0 0
0 0 0 0 0 0 0 0 0 0 0 0 0 0 0 0 0 0 0 0 0 -0 -0 0 0 0 0 0 0 0 0 0 0 0 0 0 0 0 0 0 0 0 0 0
0 0 0 0 0 0 0 0 0 0 0 0 0 0 0 0 0 0 0 0 0 0 0 0 0 0 0 0 0 0 0 0 0 0 0 0 0 -0 -0 -0 -0 -0 -0 -0
0 0 0 0 0 0 0 0 0 0 0 0 0 0 0 0 0 0 0 0 0 0 0 0 0 0 0 0 0 0 0 0 0 -0 -0 0 0 0 0 0 0 0 0 0
0 0 0 0 0 0 0 0 0 0 0 0 0 0 0 0 0 0 0 0 0 0 0 0 0 0 0 0 0 0 0 0 0 0 0 0 0 0 0 0 0 0 0 0
0 0 0 0 0 0 0 0 0 0 0 0 0 0 0 0 0 0 0 0 0 0 0 0 0 0 0 0 0 0 0 0 0 0 0 0 0 0 0 0 -0 -0 -0 -0
0 0 0 0 0 0 0 0 0 0 -0 -0 -0 -0 0 0 0 0 0 0 0 0 0 0 0 0 0 0 0 0 0 0 0 0 0 0 -0 -0 -0 -0 -0 0 0 0
0 0 0 0 0 0 0 0 -0 -0 0 -0 -0 -0 0 0 0 0 0 0 0 0 0 0 0 0 0 0 0 0 0 0 0 0 0 -0 -0 -0 -0 -0 -0 0 0 0
0 0 0 0 0 0 0 0 -0 -0 0 -0 0 0 0 0 0 0 0 0 0 0 0 0 0 0 0 0 0 0 0 0 0 0 -0 -0 -0 -0 -0 -0 0 0 0 0
0 0 0 0 0 0 0 -0 -0 0 0 0 0 0 0 0 0 0 0 0 0 0 0 0 0 0 0 0 0 0 0 0 0 -0 -0 -0 -0 -0 -0 0 0 0 0 0
0 0 0 0 0 -0 -0 -0 -0 0 0 0 0 0 0 0 0 0 0 0 0 0 0 0 0 0 0 0 0 0 0 0 -0 -0 -0 0 0 0 0 0 0 0 0 0
0 0 0 0 0 -0 0 -0 0 0 0 0 0 0 0 0 0 0 0 0 0 0 0 0 0 0 0 0 0 0 0 -0 0 0 0 0 0 0 0 0 0 0 0 0
0 0 0 0 0 -0 0 0 0 0 0 0 0 0 0 0 0 0 0 0 -0 0 0 0 0 0 0 0 0 0 0 0 0 0 0 0 0 0 0 0 0 0 0 0
0 0 0 0 0 0 0 0 0 0 0 0 0 0 0 0 0 0 0 0 -0 0 0 0 0 0 0 0 0 0 0 0 0 0 0 0 0 0 0 0 0 0 0 0
0 0 0 0 0 0 0 0 0 0 0 0 0 0 0 0 0 0 0 -0 0 0 0 0 0 0 0 0 0 0 0 0 0 0 0 0 0 0 0 0 0 0 0 0
0 0 0 0 0 -0 0 0 0 0 0 0 0 0 0 0 0 0 0 0 0 0 0 0 0 0 0 -0 0 0 0 0 0 0 0 0 0 0 0 0 0 0 0 0
0 0 0 0 -0 0 0 0 0 0 0 0 0 0 0 0 0 0 0 0 0 0 -0 0 0 0 -0 0 0 0 0 0 0 0 0 0 0 0 0 0 0 0 0 0
0 0 0 0 0 0 0 0 0 0 0 0 0 0 0 0 0 0 0 0 0 0 0 -0 0 0 -0 0 0 0 0 0 0 0 0 0 0 0 0 0 0 0 0 0
0 0 0 0 0 0 0 0 0 0 0 0 0 0 0 0 0 0 0 0 0 0 0 0 -0 -0 0 0 0 0 0 0 0 0 0 0 0 0 0 0 0 0 0 0
0 0 0 0 0 0 0 0 0 0 0 0 0 0 0 0 0 0 0 0 0 0 0 -0 -0 0 0 0 0 0 0 0 0 0 0 0 0 0 0 0 0 0 0 0
0 -0 0 0 0 0 0 0 0 0 0 0 0 0 0 0 0 0 0 0 0 0 0 -0 -0 -0 0 0 0 0 0 0 0 0 0 0 0 0 0 0 0 0 0 0
Wind_Speed_500mb
7 5 2 3 4 6 4 4 6 0 6 10 7 7 20 25 31 38 51 53 55 59 48 54 64 61 63 62 59 55 52 49 45 45 37 33 29 25 25 22 30 17 15 11
5 4 10 4 5 12 9 7 10 7 3 6 6 10 20 28 27 41 51 56 57 60 60 60 59 57 57 60 56 54 49 41 36 36 30 26 25 21 16 22 26 23 16 16
6 7 5 6 4 3 4 2 8 5 6 10 7 11 24 24 24 34 47 50 53 56 55 51 52 51 54 54 50 46 40 30 29 29 29 26 26 23 22 24 23 22 22 23
4 6 1 7 7 4 8 5 6 6 5 6 12 24 33 2 34 41 46 50 52 49 48 49 44 46 46 46 46 42 36 31 24 27 23 24 24 22 21 20 16 18 23 24
7 4 6 2 7 8 7 8 11 9 7 11 17 24 7 10 39 38 44 45 40 38 38 42 43 41 42 40 41 38 38 36 31 29 24 23 23 24 24 21 16 18 17 18
3 7 8 9 5 9 11 8 25 19 16 9 15 9 6 33 34 39 38 33 34 34 34 35 34 34 35 37 37 39 40 38 38 33 26 27 28 28 25 26 27 30 33 37
3 3 11 8 13 14 8 11 28 24 14 7 5 11 27 28 32 33 32 29 28 30 31 31 30 28 30 33 35 34 34 31 30 30 30 28 30 33 31 37 39 42 46 46
5 4 10 19 11 11 9 13 17 14 12 13 13 20 19 23 27 29 25 24 25 29 28 28 28 26 26 28 31 29 26 27 29 31 31 32 34 38 35 34 34 36 37 49
12 10 3 16 6 11 17 11 13 11 9 12 11 14 15 19 25 22 21 21 24 25 27 30 28 27 28 27 25 26 28 30 30 32 39 46 43 40 53 57 53 48 45 45
7 3 7 14 17 17 14 8 10 6 8 7 7 9 10 17 17 17 17 21 23 24 30 34 33 28 29 29 27 27 33 37 38 46 51 65 60 52 44 44 45 43 42 39
1 5 2 15 21 20 15 9 4 6 6 2 3 5 10 13 12 13 15 19 21 36 41 45 47 49 45 42 43 48 55 61 61 58 54 48 45 45 45 45 45 43 43 44
9 24 14 8 35 24 17 9 7 5 3 2 4 4 6 6 6 11 16 21 35 36 39 42 43 42 41 43 50 55 52 46 47 46 44 42 42 46 48 49 47 45 43 41
8 18 18 9 21 24 17 10 6 3 6 9 6 5 1 2 9 13 20 31 34 36 36 34 32 31 35 40 43 45 45 43 43 43 42 41 41 40 40 40 40 42 42 40
16 26 16 22 13 22 13 7 7 9 13 11 8 7 5 7 14 19 28 32 30 30 34 37 34 36 36 37 40 42 42 40 36 37 37 35 34 35 34 36 38 38 37 36
30 17 9 16 17 19 13 11 15 16 16 13 11 9 10 13 18 25 32 30 28 29 33 33 33 34 32 31 30 30 29 27 26 26 27 29 31 32 32 31 32 31 29 33
31 15 13 17 19 18 16 17 19 21 18 15 12 10 12 16 18 27 33 31 27 25 25 25 21 16 12 11 12 14 16 19 23 24 26 27 26 26 25 25 25 25 27 32
37 27 25 24 22 21 20 20 20 21 18 13 10 12 14 17 22 29 33 31 26 21 19 18 19 18 15 12 5 5 10 14 18 22 23 25 27 26 25 26 31 34 37 38
17 10 12 11 22 29 29 25 24 21 19 15 13 15 19 19 22 27 32 33 27 19 15 12 14 17 19 19 19 19 18 16 17 17 20 23 28 27 26 27 29 30 32 32
20 12 14 15 23 27 28 25 21 16 16 17 17 16 20 21 23 26 31 33 28 20 12 7 8 9 5 5 8 9 12 14 13 14 17 20 21 23 24 26 26 27 28 28
18 13 17 25 29 30 27 21 15 12 10 17 17 20 21 24 24 25 34 33 27 19 11 3 2 5 7 6 8 8 8 9 12 15 12 15 17 19 21 23 24 25 26 28
14 17 28 28 31 29 22 15 15 14 10 17 17 17 19 23 24 25 32 35 29 20 11 2 3 6 5 6 8 10 12 12 12 13 15 17 16 17 19 20 20 22 24 26
19 24 29 27 28 25 22 19 14 18 16 16 17 21 23 21 25 24 31 34 31 22 9 3 0 1 2 7 9 8 9 12 14 15 16 16 16 17 17 18 18 19 21 24
24 26 23 22 23 23 28 27 21 18 20 16 15 19 21 20 25 25 31 38 30 18 9 5 1 3 4 6 8 9 10 12 13 13 13 12 13 14 15 16 16 16 17 19
23 22 17 18 19 24 30 39 31 25 21 18 14 20 22 24 25 27 37 40 25 14 10 7 3 3 7 9 10 11 12 12 12 12 12 12 13 13 14 14 16 17 16 16
17 14 17 23 27 24 28 38 38 35 27 20 18 23 26 26 26 36 43 31 20 15 12 5 3 4 6 10 13 14 14 14 14 14 16 16 15 16 16 16 17 18 17 14
7 8 14 15 15 15 24 37 39 34 24 19 25 30 31 33 41 42 33 24 18 12 6 4 5 5 3 5 8 10 11 11 11 12 14 15 16 18 19 20 20 20 18 14
18 22 14 19 19 20 25 29 30 28 25 26 33 36 38 46 45 36 29 22 14 9 10 8 6 6 6 5 4 6 8 9 10 10 10 11 13 14 14 14 15 16 15 15
Wind_Direction_500mb
208 259 46 87 295 325 107 78 150 240 120 195 226 307 327 322 321 332 343 344 345 346 341 341 342 346 344 342 340 337 331 328 330 333 335 334 333 323 319 316 329 322 306 291
229 43 21 81 81 87 72 105 92 123 153 193 230 281 312 326 332 340 343 343 345 346 341 344 347 346 346 345 344 340 337 330 333 336 338 342 346 337 332 340 319 319 316 304
254 28 30 350 264 84 117 207 148 182 181 190 232 305 319 324 340 344 338 337 339 338 342 349 350 349 349 349 349 347 350 346 345 348 354 355 358 353 346 332 326 323 317 311
197 31 257 252 334 166 129 144 138 115 187 252 284 309 313 269 353 341 334 336 338 341 347 348 353 353 351 357 1 4 4 2 12 1 9 4 5 358 355 357 358 354 351 336
137 164 284 303 228 152 156 255 196 195 229 276 310 320 312 341 338 328 330 333 336 345 347 350 354 355 3 5 11 16 16 11 5 358 0 357 357 4 15 8 351 360 2 22
108 119 210 228 191 165 125 306 197 204 229 253 343 354 261 331 327 326 332 337 343 348 352 357 355 4 10 13 15 8 12 29 29 32 34 22 21 35 39 51 64 72 71 68
115 172 289 233 147 138 87 245 182 203 242 223 259 249 315 322 321 329 336 343 350 351 358 3 359 5 14 13 12 8 7 26 26 28 33 43 54 63 65 85 87 84 78 75
94 98 276 166 124 157 192 141 178 214 245 273 289 307 316 322 325 337 348 355 357 360 5 8 4 8 9 8 3 9 23 31 41 48 55 60 67 76 81 76 76 78 78 77
167 213 211 173 185 163 151 159 199 220 262 281 310 338 326 323 337 350 355 359 4 10 18 17 19 22 26 22 22 31 45 54 61 64 74 78 75 79 86 80 77 75 73 76
91 231 166 176 164 166 172 183 179 231 281 304 346 319 315 332 347 350 2 11 23 37 42 45 43 38 33 30 39 54 65 69 73 78 84 90 88 84 77 71 72 74 71 66
62 288 172 219 203 196 189 178 213 292 286 23 319 287 321 343 345 11 30 42 66 77 72 67 64 67 60 64 68 79 85 92 83 83 84 83 76 72 69 67 68 67 66 67
216 193 179 190 209 207 203 218 277 278 252 154 204 282 322 344 31 53 75 94 99 85 75 66 59 60 63 64 80 93 96 83 80 78 74 73 72 71 71 70 66 61 57 53
162 183 180 164 184 196 208 229 240 235 159 191 183 228 145 106 83 92 114 120 104 89 73 59 55 68 79 83 85 84 83 79 76 74 74 76 72 68 67 64 64 59 53 49
163 165 165 187 193 199 207 201 161 161 182 188 188 181 142 123 108 122 134 128 112 95 76 65 74 85 86 85 85 83 79 77 74 69 67 68 68 67 62 60 56 55 47 38
166 181 199 190 191 190 192 177 157 176 189 189 180 164 153 136 127 140 144 135 123 103 84 85 88 91 95 95 90 84 77 70 65 65 60 61 60 54 51 48 49 47 41 37
184 191 185 181 185 190 180 166 168 183 186 194 168 166 161 149 139 150 155 151 141 119 95 81 75 78 94 89 76 69 63 61 62 62 62 62 54 42 41 38 40 41 43 42
174 174 188 198 205 192 178 165 166 176 188 188 179 178 170 153 147 164 168 167 161 137 106 79 60 45 38 36 36 73 97 97 76 68 63 52 45 43 43 50 53 53 55 53
188 193 210 229 205 179 174 173 176 181 190 210 212 191 176 157 155 173 176 177 173 154 123 87 51 37 46 72 89 90 96 100 88 72 55 42 38 42 44 46 48 49 52 51
192 220 207 193 175 171 171 175 180 188 201 207 203 194 175 166 170 180 181 182 178 165 143 103 51 33 28 76 86 85 78 69 57 39 17 5 23 36 41 45 49 50 49 46
193 196 172 163 162 166 169 171 180 193 205 199 196 190 184 178 182 183 186 187 182 175 164 128 15 338 320 317 331 325 333 351 349 350 1 32 36 39 40 44 45 44 43 42
192 174 165 162 161 164 170 183 195 211 216 204 198 192 184 182 186 184 186 188 184 181 178 245 301 339 5 64 76 64 60 55 48 43 38 37 36 36 38 39 37 38 37 36
175 170 171 173 178 186 192 208 209 206 212 202 201 194 194 192 188 184 187 184 181 182 192 206 270 34 28 15 359 2 23 31 31 33 35 35 34 27 24 26 30 30 30 29
168 172 178 192 203 215 223 223 218 216 210 207 209 202 197 191 184 186 180 178 178 184 188 169 104 3 14 18 25 32 35 33 30 27 24 26 25 20 17 15 19 23 24 24
174 184 199 209 241 251 235 216 215 209 201 208 212 196 192 181 173 175 173 173 177 179 171 156 120 47 41 41 44 41 36 30 30 26 22 16 12 13 13 15 17 16 16 17
178 202 237 253 257 248 223 203 200 196 195 205 207 190 173 169 167 161 161 168 166 164 172 177 95 63 45 46 55 60 56 50 43 37 28 25 25 25 21 15 8 3 1 1
163 270 261 217 195 181 170 177 186 189 197 202 186 174 165 157 151 153 160 155 156 165 194 222 278 288 309 26 42 43 33 26 17 9 7 10 15 12 4 357 351 344 342 342
90 69 119 155 162 163 163 173 185 197 204 189 174 167 164 154 152 152 149 143 153 146 115 99 96 100 115 118 95 61 37 40 44 43 30 10 356 353 352 350 350 354 354 351
Wind_Speed_850mb
7 5 2 3 4 6 4 4 6 0 6 10 7 7 20 25 31 38 51 53 55 59 48 54 64 61 63 62 59 55 52 49 45 45 37 33 29 25 25 22 30 17 15 11
5 4 10 4 5 12 9 7 10 7 3 6 6 10 20 28 27 41 51 56 57 60 60 60 59 57 57 60 56 54 49 41 36 36 30 26 25 21 16 22 26 23 16 16
6 7 5 6 4 3 4 2 8 5 6 10 7 11 24 24 24 34 47 50 53 56 55 51 52 51 54 54 50 46 40 30 29 29 29 26 26 23 22 24 23 22 22 23
4 6 1 7 7 4 8 5 6 6 5 6 12 24 33 2 34 41 46 50 52 49 48 49 44 46 46 46 46 42 36 31 24 27 23 24 24 22 21 20 16 18 23 24
7 4 6 2 7 8 7 8 11 9 7 11 17 24 7 10 39 38 44 45 40 38 38 42 43 41 42 40 41 38 38 36 31 29 24 23 23 24 24 21 16 18 17 18
3 7 8 9 5 9 11 8 25 19 16 9 15 9 6 33 34 39 38 33 34 34 34 35 34 34 35 37 37 39 40 38 38 33 26 27 28 28 25 26 27 30 33 37
3 3 11 8 13 14 8 11 28 24 14 7 5 11 27 28 32 33 32 29 28 30 31 31 30 28 30 33 35 34 34 31 30 30 30 28 30 33 31 37 39 42 46 46
5 4 10 19 11 11 9 13 17 14 12 13 13 20 19 23 27 29 25 24 25 29 28 28 28 26 26 28 31 29 26 27 29 31 31 32 34 38 35 34 34 36 37 49
12 10 3 16 6 11 17 11 13 11 9 12 11 14 15 19 25 22 21 21 24 25 27 30 28 27 28 27 25 26 28 30 30 32 39 46 43 40 53 57 53 48 45 45
7 3 7 14 17 17 14 8 10 6 8 7 7 9 10 17 17 17 17 21 23 24 30 34 33 28 29 29 27 27 33 37 38 46 51 65 60 52 44 44 45 43 42 39
1 5 2 15 21 20 15 9 4 6 6 2 3 5 10 13 12 13 15 19 21 36 41 45 47 49 45 42 43 48 55 61 61 58 54 48 45 45 45 45 45 43 43 44
9 24 14 8 35 24 17 9 7 5 3 2 4 4 6 6 6 11 16 21 35 36 39 42 43 42 41 43 50 55 52 46 47 46 44 42 42 46 48 49 47 45 43 41
8 18 18 9 21 24 17 10 6 3 6 9 6 5 1 2 9 13 20 31 34 36 36 34 32 31 35 40 43 45 45 43 43 43 42 41 41 40 40 40 40 42 42 40
16 26 16 22 13 22 13 7 7 9 13 11 8 7 5 7 14 19 28 32 30 30 34 37 34 36 36 37 40 42 42 40 36 37 37 35 34 35 34 36 38 38 37 36
30 17 9 16 17 19 13 11 15 16 16 13 11 9 10 13 18 25 32 30 28 29 33 33 33 34 32 31 30 30 29 27 26 26 27 29 31 32 32 31 32 31 29 33
31 15 13 17 19 18 16 17 19 21 18 15 12 10 12 16 18 27 33 31 27 25 25 25 21 16 12 11 12 14 16 19 23 24 26 27 26 26 25 25 25 25 27 32
37 27 25 24 22 21 20 20 20 21 18 13 10 12 14 17 22 29 33 31 26 21 19 18 19 18 15 12 5 5 10 14 18 22 23 25 27 26 25 26 31 34 37 38
17 10 12 11 22 29 29 25 24 21 19 15 13 15 19 19 22 27 32 33 27 19 15 12 14 17 19 19 19 19 18 16 17 17 20 23 28 27 26 27 29 30 32 32
20 12 14 15 23 27 28 25 21 16 16 17 17 16 20 21 23 26 31 33 28 20 12 7 8 9 5 5 8 9 12 14 13 14 17 20 21 23 24 26 26 27 28 28
18 13 17 25 29 30 27 21 15 12 10 17 17 20 21 24 24 25 34 33 27 19 11 3 2 5 7 6 8 8 8 9 12 15 12 15 17 19 21 23 24 25 26 28
14 17 28 28 31 29 22 15 15 14 10 17 17 17 19 23 24 25 32 35 29 20 11 2 3 6 5 6 8 10 12 12 12 13 15 17 16 17 19 20 20 22 24 26
19 24 29 27 28 25 22 19 14 18 16 16 17 21 23 21 25 24 31 34 31 22 9 3 0 1 2 7 9 8 9 12 14 15 16 16 16 17 17 18 18 19 21 24
24 26 23 22 23 23 28 27 21 18 20 16 15 19 21 20 25 25 31 38 30 18 9 5 1 3 4 6 8 9 10 12 13 13 13 12 13 14 15 16 16 16 17 19
23 22 17 18 19 24 30 39 31 25 21 18 14 20 22 24 25 27 37 40 25 14 10 7 3 3 7 9 10 11 12 12 12 12 12 12 13 13 14 14 16 17 16 16
17 14 17 23 27 24 28 38 38 35 27 20 18 23 26 26 26 36 43 31 20 15 12 5 3 4 6 10 13 14 14 14 14 14 16 16 15 16 16 16 17 18 17 14
7 8 14 15 15 15 24 37 39 34 24 19 25 30 31 33 41 42 33 24 18 12 6 4 5 5 3 5 8 10 11 11 11 12 14 15 16 18 19 20 20 20 18 14
18 22 14 19 19 20 25 29 30 28 25 26 33 36 38 46 45 36 29 22 14 9 10 8 6 6 6 5 4 6 8 9 10 10 10 11 13 14 14 14 15 16 15 15
Wind_Direction_850mb
208 259 46 87 295 325 107 78 150 240 120 195 226 307 327 322 321 332 343 344 345 346 341 341 342 346 344 342 340 337 331 328 330 333 335 334 333 323 319 316 329 322 306 291
229 43 21 81 81 87 72 105 92 123 153 193 230 281 312 326 332 340 343 343 345 346 341 344 347 346 346 345 344 340 337 330 333 336 338 342 346 337 332 340 319 319 316 304
254 28 30 350 264 84 117 207 148 182 181 190 232 305 319 324 340 344 338 337 339 338 342 349 350 349 349 349 349 347 350 346 345 348 354 355 358 353 346 332 326 323 317 311
197 31 257 252 334 166 129 144 138 115 187 252 284 309 313 269 353 341 334 336 338 341 347 348 353 353 351 357 1 4 4 2 12 1 9 4 5 358 355 357 358 354 351 336
137 164 284 303 228 152 156 255 196 195 229 276 310 320 312 341 338 328 330 333 336 345 347 350 354 355 3 5 11 16 16 11 5 358 0 357 357 4 15 8 351 360 2 22
108 119 210 228 191 165 125 306 197 204 229 253 343 354 261 331 327 326 332 337 343 348 352 357 355 4 10 13 15 8 12 29 29 32 34 22 21 35 39 51 64 72 71 68
115 172 289 233 147 138 87 245 182 203 242 223 259 249 315 322 321 329 336 343 350 351 358 3 359 5 14 13 12 8 7 26 26 28 33 43 54 63 65 85 87 84 78 75
94 98 276 166 124 157 192 141 178 214 245 273 289 307 316 322 325 337 348 355 357 360 5 8 4 8 9 8 3 9 23 31 41 48 55 60 67 76 81 76 76 78 78 77
167 213 211 173 185 163 151 159 199 220 262 281 310 338 326 323 337 350 355 359 4 10 18 17 19 22 26 22 22 31 45 54 61 64 74 78 75 79 86 80 77 75 73 76
91 231 166 176 164 166 172 183 179 231 281 304 346 319 315 332 347 350 2 11 23 37 42 45 43 38 33 30 39 54 65 69 73 78 84 90 88 84 77 71 72 74 71 66
62 288 172 219 203 196 189 178 213 292 286 23 319 287 321 343 345 11 30 42 66 77 72 67 64 67 60 64 68 79 85 92 83 83 84 83 76 72 69 67 68 67 66 67
216 193 179 190 209 207 203 218 277 278 252 154 204 282 322 344 31 53 75 94 99 85 75 66 59 60 63 64 80 93 96 83 80 78 74 73 72 71 71 70 66 61 57 53
162 183 180 164 184 196 208 229 240 235 159 191 183 228 145 106 83 92 114 120 104 89 73 59 55 68 79 83 85 84 83 79 76 74 74 76 72 68 67 64 64 59 53 49
163 165 165 187 193 199 207 201 161 161 182 188 188 181 142 123 108 122 134 128 112 95 76 65 74 85 86 85 85 83 79 77 74 69 67 68 68 67 62 60 56 55 47 38
166 181 199 190 191 190 192 177 157 176 189 189 180 164 153 136 127 140 144 135 123 103 84 85 88 91 95 95 90 84 77 70 65 65 60 61 60 54 51 48 49 47 41 37
184 191 185 181 185 190 180 166 168 183 186 194 168 166 161 149 139 150 155 151 141 119 95 81 75 78 94 89 76 69 63 61 62 62 62 62 54 42 41 38 40 41 43 42
174 174 188 198 205 192 178 165 166 176 188 188 179 178 170 153 147 164 168 167 161 137 106 79 60 45 38 36 36 73 97 97 76 68 63 52 45 43 43 50 53 53 55 53
188 193 210 229 205 179 174 173 176 181 190 210 212 191 176 157 155 173 176 177 173 154 123 87 51 37 46 72 89 90 96 100 88 72 55 42 38 42 44 46 48 49 52 51
192 220 207 193 175 171 171 175 180 188 201 207 203 194 175 166 170 180 181 182 178 165 143 103 51 33 28 76 86 85 78 69 57 39 17 5 23 36 41 45 49 50 49 46
193 196 172 163 162 166 169 171 180 193 205 199 196 190 184 178 182 183 186 187 182 175 164 128 15 338 320 317 331 325 333 351 349 350 1 32 36 39 40 44 45 44 43 42
192 174 165 162 161 164 170 183 195 211 216 204 198 192 184 182 186 184 186 188 184 181 178 245 301 339 5 64 76 64 60 55 48 43 38 37 36 36 38 39 37 38 37 36
175 170 171 173 178 186 192 208 209 206 212 202 201 194 194 192 188 184 187 184 181 182 192 206 270 34 28 15 359 2 23 31 31 33 35 35 34 27 24 26 30 30 30 29
168 172 178 192 203 215 223 223 218 216 210 207 209 202 197 191 184 186 180 178 178 184 188 169 104 3 14 18 25 32 35 33 30 27 24 26 25 20 17 15 19 23 24 24
174 184 199 209 241 251 235 216 215 209 201 208 212 196 192 181 173 175 173 173 177 179 171 156 120 47 41 41 44 41 36 30 30 26 22 16 12 13 13 15 17 16 16 17
178 202 237 253 257 248 223 203 200 196 195 205 207 190 173 169 167 161 161 168 166 164 172 177 95 63 45 46 55 60 56 50 43 37 28 25 25 25 21 15 8 3 1 1
163 270 261 217 195 181 170 177 186 189 197 202 186 174 165 157 151 153 160 155 156 165 194 222 278 288 309 26 42 43 33 26 17 9 7 10 15 12 4 357 351 344 342 342
90 69 119 155 162 163 163 173 185 197 204 189 174 167 164 154 152 152 149 143 153 146 115 99 96 100 115 118 95 61 37 40 44 43 30 10 356 353 352 350 350 354 354 351